www.pogodaiklimat.ru

Погода и климат >> Архив погоды >> Таиланд >> Тхонг Пха Пхум


ПОГОДА в Тхонг Пха Пхум

  • Прогноз погоды в Тхонг Пха Пхум
  • Монитор погоды в Тхонг Пха Пхум

АРХИВ ПОГОДЫ в Тхонг Пха Пхум

Время (UTC), дата Ветер
(напр.,м/с)
 
Видим.   Явления Облачность Т
(С)
Тd
(С)
f
(%)
Тe
(С)
Тes
(С)
Комфортность P
(гПа)
Po
(гПа)
Тmin
(С)
Tmax
(С)
R
(мм)
R24
(мм)
S
(см)
15 12.08 штиль 0 5000 м дымка {дождь} 10/4 600 м
[Sc Ac lent Cs]
+26.5 +25.4 94 +39 +39 очень
душно
1008.9 997.6 0.3
18 12.08 штиль 0 4000 м дымка {дождь} 10/4 600 м
[Sc Ac lent Cs]
+25.8 +24.9 95 +37 +37 очень
душно
1008.1 996.8 2
21 12.08 штиль 0 3000 м слаб. дождь 10/4 600 м
[Sc Ac lent Cs]
+25.5 +24.8 96 +36 +36 очень
душно
1007.2 995.9 1
00 13.08 штиль 0 4000 м дымка {дождь} 10/4 600 м
[Sc Ac lent Cs]
+25.3 +24.7 96 +36 +36 очень
душно
1008.5 997.1 +25.0 0.3
03 13.08 штиль 0 4000 м дымка {дождь} 10/4 600 м
[Sc Ac lent Cs]
+26.7 +25.3 92 +39 +45 очень
душно
1010.5 999.1 0.6
06 13.08 штиль 0 4000 м в посл. час дождь 10/4 600 м
[Sc Ac lent Cs]
+26.7 +25.3 92 +39 +48 очень
душно
1009.8 998.4 7
09 13.08 штиль 0 4000 м слаб. дождь 10/4 600 м
[Sc Ac lent Cs]
+26.5 +25.1 92 +38 +42 очень
душно
1007.9 996.6 3
12 13.08 штиль 0 4000 м дымка {дождь} 10/4 600 м
[Sc Ac lent Cs]
+26.7 +25.1 91 +38 +38 очень
душно
1008.8 997.5 +27.8 10
15 13.08 штиль 0 3000 м в посл. час дождь 10/4 600 м
[Sc Ac lent Cs]
+26.0 +25.3 96 +38 +38 очень
душно
1011.3 999.9 0.8
18 13.08 штиль 0 3000 м дымка {дождь} 10/4 600 м
[Sc Ac lent Cs]
+25.2 +24.8 98 +36 +36 очень
душно
1010.6 999.2 0.6
21 13.08 штиль 0 3000 м дымка {дождь} 10/4 600 м
[Sc Ac lent Cs]
+25.0 +23.5 91 +34 +34 очень
душно
1009.2 997.8 0.5
00 14.08 штиль 0 3000 м дымка {дождь} 10/4 600 м
[Sc Ac lent Cs]
+24.8 +24.4 98 +35 +35 очень
душно
1009.5 998.1 +24.6 12
03 14.08 штиль 0 6000 м дымка 8/4 600 м
[Sc Ac trans Cs]
+27.8 +26.0 90 +42 +50 опасность
перегрева
1010.8 999.5
06 14.08 штиль 0 6000 м в посл. час дождь 10/4 600 м
[Sc Ac lent Cs]
+29.3 +25.0 78 +42 +51 опасность
перегрева
1009.9 998.6 2
09 14.08 штиль 0 5000 м дымка 10/4 600 м
[Sc Ac lent Cs]
+29.2 +23.5 71 +40 +43 очень
душно
1008.1 996.9
12 14.08 штиль 0 5000 м дымка 10/4 600 м
[Sc Ac lent Cs]
+27.8 +24.6 83 +39 +39 очень
душно
1008.5 997.2 +30.1
15 14.08 штиль 0 5000 м дымка 10/4 600 м
[Sc Ac lent Cs]
+26.0 +24.6 92 +37 +37 очень
душно
1011.1 999.7
18 14.08 штиль 0 4000 м дымка 10/4 600 м
[Sc Ac lent Cs]
+25.3 +24.1 93 +35 +35 очень
душно
1009.3 997.9
21 14.08 штиль 0 4000 м дымка 10/4 600 м
[Sc Ac lent Cs]
+24.7 +24.0 96 +34 +34 очень
душно
1009.2 997.8
00 15.08 штиль 0 5000 м дымка 10/4 600 м
[Sc Ac lent Cs]
+24.6 +23.7 95 +33 +34 очень
душно
1009.3 997.9 +24.2
03 15.08 штиль 0 7000 м дымка 10/4 600 м
[Sc Ac lent Cs]
+29.5 +24.3 74 +41 +47 опасность
перегрева
1009.9 998.6
06 15.08 С 3 7000 м дымка 8/4 600 м
[Sc Ac lent Cs]
+31.5 +25.1 69 +45 +52 опасность
перегрева
1008.0 996.9
09 15.08 З 3 7000 м дымка 8/4 600 м
[Sc Ac cuf Cs]
+31.5 +24.4 66 +44 +47 опасность
перегрева
1005.9 994.7
12 15.08 штиль 0 6000 м дымка {дождь} 8/4 600 м
[Sc Ac lent Cs]
+27.6 +24.6 84 +39 +39 очень
душно
1006.1 994.9 +33.5 0.2
15 15.08 штиль 0 4000 м дымка 8/4 600 м
[Sc Ac lent Cs]
+26.5 +25.1 92 +38 +38 очень
душно
1008.2 996.9
18 15.08 штиль 0 4000 м дымка 10/4 600 м
[Sc Ac lent Cs]
+26.0 +24.6 92 +37 +37 очень
душно
1007.9 996.5
21 15.08 штиль 0 4000 м дымка 10/4 600 м
[Sc Ac lent Cs]
+25.5 +24.8 96 +36 +36 очень
душно
1007.0 995.6
00 16.08 штиль 0 6000 м дымка 10/4 600 м
[Sc Ac trans Cs]
+25.2 +24.2 94 +35 +35 очень
душно
1007.5 996.1 +25.0
03 16.08 штиль 0 8000 м дымка 10/4 600 м
[Sc Ac trans Cs]
+28.8 +24.8 79 +41 +47 опасность
перегрева
1008.7 997.5
06 16.08 штиль 0 8000 м дымка 10/4 600 м
[Sc Ac lent Cs]
+29.2 +24.6 76 +41 +50 опасность
перегрева
1007.3 996.1
09 16.08 штиль 0 5000 м в посл. час дождь 10/4 600 м
[Sc Ac lent Cs]
+26.7 +25.0 90 +38 +42 очень
душно
1005.7 994.4 18
12 16.08 штиль 0 5000 м дымка {дождь} 10/4 600 м
[Sc Ac lent Cs]
+26.7 +25.0 90 +38 +38 очень
душно
1006.0 994.7 +32.6 18
15 16.08 штиль 0 5000 м дымка 10/4 600 м
[Sc Ac lent Cs]
+25.6 +24.7 95 +36 +36 очень
душно
1008.4 997.0
18 16.08 штиль 0 4000 м дымка 10/4 600 м
[Sc Ac lent Cs]
+25.1 +24.2 95 +35 +35 очень
душно
1007.9 996.5
21 16.08 штиль 0 4000 м в посл. час дождь 10/4 600 м
[Sc Ac lent Cs]
+25.0 +24.4 96 +35 +35 очень
душно
1007.5 996.1 0.2
00 17.08 штиль 0 4000 м дымка {дождь} 10/4 600 м
[Sc Ac lent Cs]
+25.5 +24.8 96 +36 +36 очень
душно
1008.2 996.8 +24.8 0.3
03 17.08 штиль 0 4000 м дымка {дождь} 10/4 600 м
[Sc Ac lent Cs]
+27.7 +26.0 90 +41 +47 опасность
перегрева
1008.9 997.6 0.7
06 17.08 штиль 0 7000 м дымка {дождь} 10/4 600 м
[Sc Ac lent Cs]
+30.7 +24.7 70 +43 +52 опасность
перегрева
1008.2 997.0 0.7
09 17.08 штиль 0 6000 м в посл. час дождь 10/4 600 м
[Sc Ac lent Cs]
+27.5 +25.4 88 +40 +44 очень
душно
1007.4 996.1 4
12 17.08 штиль 0 5000 м дымка {дождь} 10/4 600 м
[Sc Ac lent Cs]
+26.5 +25.1 92 +38 +38 очень
душно
1008.1 996.8 +31.3 4
15 17.08 штиль 0 4000 м слаб. дождь 10/4 600 м
[Sc Ac lent Cs]
+26.0 +25.3 96 +38 +38 очень
душно
1011.1 999.7 0.8
18 17.08 штиль 0 4000 м дымка {дождь} 10/4 600 м
[Sc Ac lent Cs]
+25.5 +24.3 93 +35 +35 очень
душно
1009.8 998.4 0.3
21 17.08 штиль 0 4000 м дымка 10/4 600 м
[Sc Ac lent Cs]
+25.2 +24.2 94 +35 +35 очень
душно
1009.7 998.3
00 18.08 штиль 0 3000 м слаб. дождь 10/4 600 м
[Sc Ac lent Cs]
+24.5 +24.2 98 +34 +34 очень
душно
1010.8 999.3 +24.2 2
03 18.08 штиль 0 4000 м дымка {дождь} 10/4 600 м
[Sc Ac lent Cs]
+26.8 +24.8 89 +38 +44 очень
душно
1011.9 1000.5 1
06 18.08 штиль 0 6000 м дымка {дождь} 10/4 600 м
[Sc Ac lent Cs]
+30.0 +25.8 78 +45 +53 опасность
перегрева
1010.4 999.1 1
09 18.08 штиль 0 7000 м в посл. час дождь 10/4 600 м
[Sc Ac lent Cs]
+27.5 +24.3 83 +39 +42 очень
душно
1009.0 997.7 0.2
12 18.08 штиль 0 6000 м дымка {дождь} 10/4 600 м
[Sc Ac lent Cs]
+26.5 +24.3 88 +37 +37 очень
душно
1009.8 998.5 +31.0 2
15 18.08 штиль 0 4000 м дымка 10/4 600 м
[Sc Ac lent Cs]
+25.3 +24.1 93 +35 +35 очень
душно
1011.7 1000.3
18 18.08 штиль 0 4000 м дымка 10/4 600 м
[Sc Ac lent Cs]
+24.9 +24.2 96 +34 +34 очень
душно
1010.8 999.3
21 18.08 штиль 0 4000 м дымка 10/4 600 м
[Sc Ac lent Cs]
+24.5 +23.5 94 +33 +33 очень
душно
1009.6 998.2
00 19.08 штиль 0 4000 м дымка 10/4 600 м
[Sc Ac lent Cs]
+24.5 +23.8 96 +33 +34 очень
душно
1010.2 998.8 +24.2
03 19.08 штиль 0 5000 м дымка 10/4 600 м
[Sc Ac lent Cs]
+27.8 +25.5 87 +41 +47 опасность
перегрева
1010.2 998.9
06 19.08 штиль 0 5000 м дымка {дождь} 10/4 600 м
[Sc Ac lent Cs]
+30.0 +25.0 75 +43 +52 опасность
перегрева
1009.1 997.8 2
09 19.08 штиль 0 5000 м дымка 10/4 600 м
[Sc Ac lent Cs]
+28.0 +24.7 82 +40 +43 очень
душно
1007.6 996.3

 

Местоположение метеостанции Тхонг Пха Пхум (Таиланд): широта 14.75 долгота 98.63 высота над уровнем моря 99 м.

В архиве по умолчанию представлена погода в Тхонг Пха Пхум за последнюю неделю. Архивные данные за месяц целиком и за предыдущие месяцы, начиная с января 2011 года, Вы можете получить, выбрав интересующий диапазон дат из раскрывающегося списка и нажав кнопку "Ввод!".


*Определитесь, кто Вы:
робот инопланетянин человек

Внимание! Время в таблицах - всемирное. Для получения местного времени необходимо прибавить поправку, которая равна 7 ч.

Смотрите также архив погоды в соседних городах и на ближайших метеорологических станциях:

Погода в Тавое (Мьянма) (85 км)
Погода в Йе (Мьянма) (99 км)
Погода в Канчанабури (Таиланд) (126 км)
Погода в У-Тхонг Агромете (Таиланд) (143 км)
Погода в Умпханге (Таиланд) (144 км)
Погода в Суфанбури (Таиланд) (164 км)
Погода в Накхонпатхоме (Таиланд) (166 км)
Погода в Утай Тани (Таиланд) (167 км)
Погода в Чайнат Агромете (Таиланд) (172 км)
Погода в Накхон Саван (Таиланд) (201 км)

Пояснения к столбцам:

Ветер - указаны скорость ветра в м/с - средняя за 10 мин, порывы в срок и между сроками (в фигурных скобках) и направление, откуда дует ветер: С - северный, СВ - северо-восточный, В - восточный, ЮВ - юго-восточный, Ю - южный, ЮЗ - юго-западный, З - западный, СЗ - северо-западный.
Видимость - горизонтальная дальность видимости в метрах или километрах. При видимости от 1 до 10 км при отсутствии осадков обычно наблюдается дымка, при ухудшении видимости до 1 км и менее - туман. В сухую погоду видимость может ухудшаться дымом, пылью или мглою.
Явления - указаны атмосферные явления, наблюдавшиеся в срок или в последний час перед сроком; фигурными скобками обозначены явления, наблюдавшиеся между сроками (за 1-3 часа до срока); квадратными скобками обозначены град или гололедные отложения с указанием их диаметра в мм.
Облачность - указаны через наклонную черту общая и нижняя облачность в баллах и высота нижней границы облаков в метрах; квадратными скобками обозначены формы облаков: Ci - перистые, Cs - перисто-слоистые, Cc - перисто-кучевые, Ac - высококучевые, As - высокослоистые, Sc - слоисто-кучевые, Ns - слоисто-дождевые, Cu - кучевые, Cb - кучево-дождевые. Подробнее классификацию облаков см. в Атласе облаков (PDF).
T - Температура воздуха - температура, измеренная на высоте 2 м над землей.
Td - Температура точки росы - температура, при понижении до которой содержащийся в воздухе водяной пар достигнет насыщения.
f - Относительная влажность воздуха - влажноcть воздуха, измеренная на высоте 2 м над землей.
Te - Эффективная температура - температура, которую ощущает одетый по сезону человек в тени. Характеристика душности погоды. При расчете учитывается влияние влажности воздуха и скорости ветра на теплоощущения человека.
Tes - Эффективная температура на солнце - температура, которую ощущает человек, с поправкой на солнечный нагрев. Характеристика знойности погоды. Зависит от высоты солнца над горизонтом, облачности и скорости ветра. Ночью, в пасмурную погоду, а также при ветре 12 м/с и более поправка равна нулю.
P - Атмосферное давление - приведенное к уровню моря атмосферное давление.
Po - Атмосферное давление - измеренное на уровне метеостанции атмосферное давление.
Tmin - Минимальная температура - минимум температуры воздуха на высоте 2 м над землей.
Tmax - Максимальная температура - максимум температуры воздуха на высоте 2 м над землей.
R - Количество осадков - Количество выпавших осадков за период времени, мм. При наведении курсора мыши на число - период времени, за который выпало указанное количество осадков.
R24 - Количество осадков - Количество выпавших осадков за 24 часа, мм.
S - Снежный покров - Высота снежного покрова, см. При наведении курсора мыши на число - состояние снежного покрова и степень покрытия местности в баллах.